TELEOS 1 (41169 NORAD) Tracking and Keplerian Element Data

This shows tracking and keplerian element data for the satellite.

Feedback or suggestion? Click here.




ElementValue
Catalog41169
NameTELEOS 1
Epoch Orbit16064
Epoch Day316.44914874
Epoch Year2018
RAAN39.6286
Inclination14.9842
Eccentricity0.0010256
Argument of Perigee250.8706
Mean Anonmoly197.5788
Mean Motion15.10036122
Decay Rate1.025E-05
L11 41169U 15077D 18316.44914874 .00001025 00000-0 21668-4 0 9996
L22 41169 14.9842 39.6286 0010256 250.8706 197.5788 15.10036122160640

Live tracking and technical data element details for TELEOS 1 (NORAD 41169). TELEOS 1 can be tracked NOW for your location showing map with azimuth and elevation plus other details from your city location.

Track the satellite on the map from your city or location and see movement details for azimuth, elevation, latitude, longitude, range, height, and movement on the map or in text.







IsCatalogInMostPopularTable: catalog: 41169, numindb: 87
Update: records affected: 1



GetName: 41169 TELEOS 1

Hit Count: updated at: Mon, 12 Nov 2018 21:51:47 GMT